This is the latest recevied weather packets stored in our database for station/object 4S6DRJ-13. If no packets are shown the sender has not sent any weather packets the latest 10 day(s).
| Time | Temp. | Humidity | Pressure | Rain* | Wind** | Luminosity | Snow |
|---|---|---|---|---|---|---|---|
| 1778432908 | 27.22° C | 88% | 1006.2 hPa | 0 mm | 0.89 m/s, 112° | 0 W/m² | - |
| 1778432847 | 27.22° C | 88% | 1006.2 hPa | 0 mm | 1.34 m/s, 112° | 0 W/m² | - |
| 1778432785 | 27.22° C | 88% | 1006 hPa | 0 mm | 0.45 m/s, 146° | 0 W/m² | - |
| 1778432724 | 27.22° C | 88% | 1006.2 hPa | 0 mm | 0.45 m/s, 97° | 0 W/m² | - |
| 1778432664 | 27.22° C | 88% | 1006 hPa | 0 mm | 1.34 m/s, 69° | 0 W/m² | - |
| 1778432603 | 27.22° C | 88% | 1006.2 hPa | 0 mm | 0.89 m/s, 92° | 0 W/m² | - |
| 1778432542 | 27.22° C | 88% | 1006 hPa | 0 mm | 0 m/s | 0 W/m² | - |
| 1778432481 | 27.22° C | 88% | 1006.1 hPa | 0 mm | 0.89 m/s, 99° | 0 W/m² | - |
| 1778432419 | 27.22° C | 88% | 1006.1 hPa | 0 mm | 0 m/s | 0 W/m² | - |
| 1778432359 | 27.22° C | 88% | 1006.2 hPa | 0 mm | 0.45 m/s, 71° | 0 W/m² | - |
| 1778432297 | 27.22° C | 88% | 1006.3 hPa | 0 mm | 0.89 m/s, 106° | 0 W/m² | - |
| 1778432237 | 27.22° C | 87% | 1006.3 hPa | 0 mm | 0.45 m/s, 69° | 0 W/m² | - |
| 1778432176 | 27.22° C | 87% | 1006.3 hPa | 0 mm | 0.45 m/s, 71° | 0 W/m² | - |
| 1778432114 | 27.22° C | 87% | 1006.1 hPa | 0 mm | 1.34 m/s, 102° | 0 W/m² | - |
| 1778432053 | 27.22° C | 87% | 1006.1 hPa | 0 mm | 0.89 m/s, 107° | 0 W/m² | - |
| 1778431992 | 27.22° C | 87% | 1006.2 hPa | 0 mm | 0.45 m/s, 84° | 0 W/m² | - |
| 1778431932 | 27.22° C | 87% | 1006.3 hPa | 0 mm | 0.89 m/s, 122° | 0 W/m² | - |
| 1778431871 | 27.22° C | 87% | 1006 hPa | 0 mm | 1.79 m/s, 101° | 0 W/m² | - |
| 1778431809 | 27.22° C | 87% | 1006.2 hPa | 0 mm | 0.45 m/s, 82° | 0 W/m² | - |
| 1778431748 | 27.22° C | 87% | 1006.2 hPa | 0 mm | 0.89 m/s, 109° | 0 W/m² | - |
| 1778431688 | 27.22° C | 87% | 1006.2 hPa | 0 mm | 0.45 m/s, 98° | 0 W/m² | - |
| 1778431626 | 27.22° C | 86% | 1006.3 hPa | 0 mm | 0.45 m/s, 68° | 0 W/m² | - |
| 1778431565 | 27.22° C | 86% | 1006.2 hPa | 0 mm | 0.89 m/s, 92° | 0 W/m² | - |
| 1778431504 | 27.22° C | 86% | 1006.4 hPa | 0 mm | 0.45 m/s, 81° | 0 W/m² | - |
| 1778431443 | 27.22° C | 86% | 1006.2 hPa | 0 mm | 1.34 m/s, 69° | 0 W/m² | - |
* Rain latest hour (hover to see other rain measurements)
** Current wind speed in m/s (hover to see current wind gust speed)